Home > Weather > Thiès > Past weeks

Flag for Senegal Weather for the Past 2 Weeks in Thiès, Senegal

Now
72 °F

Clear.


Feels Like: 71 °F
Forecast: 67 / 102 °F
Wind: 8 mph from North

Location: Dakar / Yoff

Current Time: Feb 7, 2016 at 2:50:36 AM

Latest Report: Feb 7, 2016 at 2:00 AM


Visibility: 6 mi

Pressure: 29.98 "Hg

Humidity: 83%

Dew point: 66 °F

Location of ThièsLocation

Historic Weather in Thiès — Graph

°F

Thiès Temperature Yesterday

Maximum temperature yesterday: 86 °F (at 12:00 PM)
Minimum temperature yesterday: 70 °F (at 3:00 AM)
Average temperature yesterday: 76 °F

High & Low Weather Summary for the Past Weeks

 TemperatureHumidityPressure
High91 °F (Jan 29, 1:00 PM)100% (Jan 30, 4:00 PM)30.04 "Hg (Jan 30, 4:00 PM)
Low50 °F (Jan 30, 4:00 PM)10% (Feb 4, 10:30 AM)29.83 "Hg (Feb 2, 4:30 PM)
Average77 °F53%29.95 "Hg
* Reported Jan 23 1:00 AM — Feb 7 1:00 AM, Thiès, Weather by CustomWeather, © 2016

Note: Actual official high and low records may vary slightly from our data, if they occured in-between our weather recording intervals... More about our weather records

Advertising

Thiès Weather History for the Previous 24 Hours

 ConditionsComfort  
Time TempWeatherWind HumidityBarometerVisibility
1:00 AM
Sun, Feb 7
73 °FClear.12 mph74%29.98 "Hg6 mi
12:30 AM73 °FClear.8 mph78%29.98 "Hg6 mi
12:00 AM73 °FClear.8 mph78%29.98 "Hg6 mi
11:30 PM
Sat, Feb 6
73 °FClear.8 mph78%29.98 "Hg6 mi
11:00 PM73 °FClear.7 mph83%29.98 "Hg6 mi
10:30 PM73 °FClear.7 mph83%29.98 "Hg6 mi
10:00 PM72 °FClear.6 mph83%29.95 "Hg6 mi
9:00 PM72 °FClear.5 mph83%29.92 "Hg6 mi
8:30 PM73 °FClear.6 mph74%29.92 "Hg6 mi
8:00 PM73 °FClear.6 mph74%29.92 "Hg6 mi
7:30 PM75 °FClear.5 mph65%29.89 "Hg6 mi
7:00 PM77 °FClear.6 mph61%29.89 "Hg6 mi
6:30 PM79 °FClear.8 mph58%29.89 "Hg6 mi
6:00 PM79 °FClear.8 mph58%29.86 "Hg6 mi
5:30 PM81 °FClear.8 mph58%29.86 "Hg6 mi
5:00 PM81 °FClear.8 mph51%29.86 "Hg6 mi
4:30 PM81 °FClear.7 mph51%29.86 "Hg5 mi
4:00 PM82 °FClear.7 mphN/A29.86 "Hg5 mi
3:30 PM82 °FClear.7 mph51%29.89 "Hg5 mi
3:00 PM86 °FClear.3 mph38%29.89 "Hg5 mi
2:30 PM82 °FClear.6 mph55%29.89 "Hg5 mi
2:00 PM82 °FClear.6 mph55%29.92 "Hg5 mi
1:30 PM82 °FClear.8 mph55%29.92 "Hg5 mi
1:00 PM82 °FClear.8 mph55%29.92 "Hg5 mi
12:30 PM81 °FClear.9 mph54%29.95 "Hg5 mi
12:00 PM86 °FClear.5 mph19%29.95 "Hg5 mi
11:30 AM82 °FClear.6 mph42%29.98 "Hg5 mi
11:00 AM82 °FClear.8 mph32%29.98 "Hg5 mi
10:30 AM81 °FClear.8 mph39%29.98 "Hg5 mi
10:00 AM79 °FClear.8 mph42%29.98 "Hg5 mi
9:30 AM75 °FClear.7 mph61%29.98 "Hg5 mi
9:00 AM73 °FClear.7 mph74%29.95 "Hg5 mi
8:30 AM72 °FClear.7 mph83%29.95 "Hg5 mi
8:00 AM72 °FClear.7 mph83%29.95 "Hg5 mi
7:30 AM72 °FClear.8 mph83%29.95 "Hg5 mi
7:00 AM72 °FClear.8 mph78%29.95 "Hg5 mi
6:30 AM70 °FClear.7 mph83%29.92 "Hg5 mi
6:00 AM70 °FClear.7 mph83%29.92 "Hg5 mi
5:00 AM72 °FClear.7 mph78%29.92 "Hg5 mi
4:00 AM70 °FClear.6 mph88%29.92 "Hg5 mi
3:30 AM72 °FClear.7 mph83%29.92 "Hg5 mi
3:00 AM70 °FClear.6 mph88%29.92 "Hg5 mi
2:00 AM72 °FClear.6 mph83%29.95 "Hg5 mi
Weather by CustomWeather, © 2016

See weather overviewHow to use our weather pages